www.pogodaiklimat.ru
Время
и дата
14:51 27.11
15:51 27.11
16:51 27.11
17:51 27.11
18:51 27.11
19:51 27.11
20:51 27.11
21:51 27.11
22:51 27.11
23:51 27.11
00:51 28.11
01:51 28.11
02:51 28.11
03:51 28.11
04:51 28.11
05:51 28.11
06:51 28.11
07:51 28.11
08:51 28.11
09:51 28.11
10:51 28.11
11:51 28.11
12:51 28.11
13:51 28.11
14:51 28.11
15:51 28.11
16:51 28.11
17:51 28.11
18:51 28.11
19:51 28.11
20:51 28.11
21:51 28.11
22:51 28.11
23:51 28.11
00:51 29.11
01:51 29.11
02:51 29.11
03:51 29.11
04:51 29.11
05:51 29.11
06:51 29.11
07:51 29.11
08:51 29.11
09:51 29.11
10:51 29.11
11:51 29.11
12:51 29.11
13:51 29.11
Ветер
(напр.,м/с)
Видим. Явления Облачность Т
(С)
Тd
(С)
f
(%)
Тe
(С)
Тes
(С)
Комфортность P
(гПа)
Po
(гПа)
Тmin
(С)
Tmax
(С)
R
(мм)
R24
(мм)
S
(см)
штиль 0 16 км 2/2 1200 м +15.0 +5.0 51 +15 +21 1015.8 881.3
штиль 0 16 км 2/2 1200 м +14.4 +3.9 49 +14 +18 1016.4 881.6
штиль 0 16 км ясно +13.9 +3.9 51 +14 +15 1017.2 882.2 +10.0 +15.6
ЮВ 1 16 км ясно +11.7 +5.0 63 +10 +10 1018.2 883.0
ЮВ 1 16 км ясно +10.6 +5.0 68 +9 +9 1019.4 883.6
ЮВ 1 16 км ясно +10.0 +4.4 68 +8 +8 1020.2 884.5
штиль 0 16 км ясно +9.4 +4.4 71 +9 +9 1020.6 884.8
Ю 1 16 км ясно +7.2 +4.4 82 +5 +5 1021.6 885.7
штиль 0 16 км ясно +6.1 +3.3 82 +5 +5 1021.8 886.0 +6.1 +13.9
С 1 16 км ясно +6.7 +3.9 82 +4 +4 1022.6 886.6
СЗ 1 16 км ясно +6.1 +3.3 82 +4 +4 1022.5 886.6
СВ 1 16 км ясно +5.6 +2.2 79 +3 +3 1022.8 886.8
С 1 16 км ясно +6.7 -0.6 60 +5 +5 1023.1 887.4
СВ 2 16 км ясно +5.6 -1.7 59 +2 +2 1023.7 887.7
С 2 16 км ясно +7.2 -2.8 49 +4 +4 1023.8 888.0 +3.9 +8.3 1.0
С 2 16 км ясно +7.8 -2.2 49 +5 +5 1024.5 888.3
С 1 16 км ясно +6.1 -1.1 60 +3 +3 1025.7 888.9
В 1 16 км ясно +7.8 -0.6 55 +6 +6 1026.1 889.5
СВ 1 16 км ясно +11.1 +0.6 48 +10 +11 1026.2 890.1
СВ 1 16 км ясно +12.8 +0.6 43 +12 +15 1026.7 890.4
штиль 0 16 км ясно +14.4 -0.6 36 +14 +21 1025.8 889.8 +5.0 +14.4
штиль 0 16 км ясно +14.4 -3.3 29 +14 +24 1024.9 888.9
штиль 0 16 км ясно +16.7 -2.2 27 +17 +27 1023.6 888.0
штиль 0 16 км ясно +16.7 -1.7 28 +17 +26 1022.9 887.1
штиль 0 16 км ясно +17.2 -2.2 27 +17 +25 1022.0 886.8
Ю 1 16 км ясно +16.7 -3.9 24 +17 +20 1022.2 886.6
ЮВ 1 16 км ясно +15.6 -2.2 29 +16 +17 1022.1 886.8 +13.9 +17.2
ЮВ 1 16 км ясно +12.8 -0.6 40 +12 +12 1022.6 887.1
ЮВ 1 16 км ясно +11.1 0.0 46 +10 +10 1023.7 887.4
штиль 0 16 км ясно +11.7 -0.6 43 +12 +12 1023.7 887.7
штиль 0 16 км ясно +10.0 -0.6 48 +10 +10 1023.5 887.7
В 1 16 км ясно +7.2 +2.2 71 +5 +5 1023.6 887.7
В 1 16 км ясно +8.3 +1.1 60 +7 +7 1023.2 887.7 +6.7 +15.6
штиль 0 16 км ясно +7.2 +1.7 68 +7 +7 1023.1 887.4
С 1 16 км ясно +6.7 +1.7 70 +5 +5 1022.5 887.1
штиль 0 16 км ясно +4.4 +1.1 79 +4 +4 1022.9 887.1
штиль 0 16 км ясно +4.4 +0.6 76 +4 +4 1022.6 886.8
С 1 16 км ясно +4.4 +0.6 76 +2 +2 1022.4 886.8
В 1 16 км 2/0 7500 м
[Ci]
+3.3 0.0 79 0 0 1022.7 886.8 +3.3 +8.3
СВ 1 16 км 2/0 7500 м
[Ci]
+2.8 -0.6 78 0 0 1023.2 886.8
СВ 1 16 км 2/0 7500 м
[Ci]
+1.1 -1.1 85 -2 -2 1024.3 887.1
СВ 1 16 км 2/0 7500 м
[Ci]
+5.6 -0.6 64 +3 +3 1023.6 887.4
С 1 16 км 2/2 1200 м
[Ci]
+7.8 -1.7 51 +6 +6 1023.8 887.4
С 1 16 км 2/2 900 м
[Ci]
+10.6 -1.7 42 +10 +12 1023.9 887.7
штиль 0 16 км 2/2 900 м
[Ci]
+12.8 -1.1 38 +13 +18 1022.6 886.8 +1.1 +13.3
штиль 0 16 км 2/0 6600 м
[Ci]
+15.6 -1.7 30 +16 +25 1020.8 885.7
нст 1 16 км 2/0 6600 м
[Ci]
+17.8 0.0 30 +18 +26 1019.3 884.5
В 1 16 км 2/0 6600 м
[Ci]
+18.3 +0.6 30 +19 +26 1018.4 883.6
Местоположение метеостанции El Paso International Airport: широта 31.8111 долгота -106.3758 высота над уровнем моря 1206 м.
В архиве по умолчанию представлена погода в Эль-Пасо за последние 1-2 суток. Обновление информации о фактической погоде в базе происходит ежечасно! Архивные данные за месяц целиком и за предыдущие месяцы Вы можете получить, выбрав интересующий диапазон дат из раскрывающегося списка и нажав кнопку "Ввод!".
Внимание! Архив погоды МЕТАР в базе сайта по станциям, не включенным в климатический монитор, хранится не более 60 дней. Нет смысла пытаться выбрать более раннюю дату.
*Определитесь, кто Вы:
Внимание! Время в таблицах - местное (без учета летнего времени). Для получения всемирного времени необходимо вычесть поправку, которая равна -7 ч.
Смотрите также архив погоды в соседних городах и на ближайших метеорологических станциях:
Партнеры нашего сайта: девушки для интима ищут знакомства и встречи.      
Пояснения к столбцам:
  • Ветер - указаны скорость ветра в м/с - средняя за 10 мин, порывы в срок и между сроками (в фигурных скобках) и направление, откуда дует ветер: С - северный,
  • СВ - северо-восточный, В - восточный, ЮВ - юго-восточный, Ю - южный, ЮЗ - юго-западный, З - западный, СЗ - северо-западный.
  • Видимость - горизонтальная дальность видимости в метрах или километрах. При видимости от 1 до 10 км при отсутствии осадков обычно наблюдается дымка, при ухудшении видимости до 1 км и менее - туман. В сухую погоду видимость может ухудшаться дымом, пылью или мглою.
  • Явления - указаны атмосферные явления, наблюдавшиеся в срок или в последний час перед сроком; фигурными скобками обозначены явления, наблюдавшиеся между сроками (за 1-3 часа до срока); квадратными скобками обозначены град или гололедные отложения с указанием их диаметра в мм.
  • Облачность - указаны через наклонную черту общая и нижняя облачность в баллах и высота нижней границы облаков в метрах; квадратными скобками обозначены формы облаков: Ci - перистые, Cs - перисто-слоистые, Cc - перисто-кучевые, Ac - высококучевые, As - высокослоистые, Sc - слоисто-кучевые, Ns - слоисто-дождевые, Cu - кучевые, Cb - кучево-дождевые. Подробнее классификацию облаков см. в Атласе облаков (PDF).
  • T - Температура воздуха - температура, измеренная на высоте 2 м над землей.
  • Td - Температура точки росы - температура, при понижении до которой содержащийся в воздухе водяной пар достигнет насыщения.
  • f - Относительная влажность воздуха - влажноcть воздуха, измеренная на высоте 2 м над землей.
  • Te - Эффективная температура - температура, которую ощущает одетый по сезону человек в тени. Характеристика душности погоды. При расчете учитывается влияние влажности воздуха и скорости ветра на теплоощущения человека.
  • Tes - Эффективная температура на солнце - температура, которую ощущает человек, с поправкой на солнечный нагрев. Характеристика знойности погоды. Зависит от высоты солнца над горизонтом, облачности и скорости ветра. Ночью, в пасмурную погоду, а также при ветре 12 м/с и более поправка равна нулю.
  • P - Атмосферное давление - приведенное к уровню моря атмосферное давление.
  • Po - Атмосферное давление - измеренное на уровне метеостанции атмосферное давление.
  • Tmin - Минимальная температура - минимум температуры воздуха на высоте 2 м над землей.
  • Tmax - Максимальная температура - максимум температуры воздуха на высоте 2 м над землей.
  • R - Количество осадков - Количество выпавших осадков за период времени, мм. При наведении курсора мыши на число - период времени, за который выпало указанное количество осадков.
  • R24 - Количество осадков - Количество выпавших осадков за 24 часа, мм.
  • S - Снежный покров - Высота снежного покрова, см. При наведении курсора мыши на число - состояние снежного покрова и степень покрытия местности в баллах.